• In India
  • List of Countries
  • For 7 days
  • Water Temperature
  • Satellite Maps
  • Weather Map
  • Weather Widgets
  • user-avatar
    Login

    Hourly Weather Perth

    Today, 25 November, Saturday

    Time Temperature Precipitation Wind Pressure Humidity
    00:00 +21°C° 0 mm 6 mps 756 mmHg 59%
    01:00 +20°C° 0 mm 6 mps 756 mmHg 64%
    02:00 +20°C° 0 mm 4 mps 756 mmHg 65%
    03:00 +19°C° 0 mm 4 mps 756 mmHg 67%
    04:00 +19°C° 0 mm 5 mps 757 mmHg 70%
    05:00 +17°C° 0 mm 5 mps 757 mmHg 72%
    06:00 +20°C° 0 mm 5 mps 757 mmHg 65%
    07:00 +21°C° 0 mm 5 mps 758 mmHg 58%
    08:00 +23°C° 0 mm 5 mps 758 mmHg 51%
    09:00 +26°C° 0 mm 5 mps 758 mmHg 44%
    10:00 +28°C° 0 mm 5 mps 757 mmHg 37%
    11:00 +32°C° 0 mm 5 mps 757 mmHg 30%
    12:00 +33°C° 0 mm 5 mps 757 mmHg 28%
    13:00 +34°C° 0 mm 6 mps 756 mmHg 26%
    14:00 +35°C° 0 mm 6 mps 756 mmHg 24%
    15:00 +34°C° 0 mm 6 mps 756 mmHg 28%
    16:00 +33°C° 0 mm 6 mps 756 mmHg 32%
    17:00 +32°C° 0 mm 7 mps 755 mmHg 36%
    18:00 +29°C° 0 mm 6 mps 756 mmHg 42%
    19:00 +27°C° 0 mm 6 mps 756 mmHg 48%
    20:00 +24°C° 0 mm 6 mps 756 mmHg 54%
    21:00 +23°C° 0 mm 6 mps 756 mmHg 55%
    22:00 +23°C° 0 mm 6 mps 757 mmHg 56%
    23:00 +22°C° 0 mm 6 mps 757 mmHg 56%

    Tomorrow, 26 November, Sunday

    Time Temperature Precipitation Wind Pressure Humidity
    00:00 +22°C° 0 mm 6 mps 757 mmHg 58%
    01:00 +21°C° 0 mm 6 mps 757 mmHg 59%
    02:00 +20°C° 0 mm 6 mps 756 mmHg 60%
    03:00 +20°C° 0 mm 5 mps 756 mmHg 60%
    04:00 +19°C° 0 mm 5 mps 756 mmHg 61%
    05:00 +19°C° 0 mm 5 mps 756 mmHg 61%
    06:00 +20°C° 0 mm 5 mps 756 mmHg 56%
    07:00 +22°C° 0 mm 5 mps 756 mmHg 52%
    08:00 +23°C° 0 mm 5 mps 756 mmHg 47%
    09:00 +27°C° 0 mm 4 mps 756 mmHg 42%
    10:00 +29°C° 0 mm 4 mps 755 mmHg 37%
    11:00 +33°C° 0 mm 4 mps 755 mmHg 31%
    12:00 +34°C° 0 mm 4 mps 754 mmHg 30%
    13:00 +35°C° 0 mm 4 mps 753 mmHg 29%
    14:00 +36°C° 0 mm 4 mps 752 mmHg 28%
    15:00 +35°C° 0 mm 5 mps 752 mmHg 30%
    16:00 +34°C° 0 mm 5 mps 751 mmHg 33%
    17:00 +33°C° 0 mm 6 mps 751 mmHg 35%
    18:00 +30°C° 0 mm 6 mps 751 mmHg 40%
    19:00 +29°C° 0 mm 6 mps 751 mmHg 45%
    20:00 +27°C° 0 mm 5 mps 752 mmHg 51%
    21:00 +26°C° 0 mm 6 mps 752 mmHg 55%
    22:00 +24°C° 0 mm 6 mps 752 mmHg 60%
    23:00 +22°C° 0 mm 6 mps 753 mmHg 65%

    Day after tomorrow, 27 November, Monday

    Time Temperature Precipitation Wind Pressure Humidity
    00:00 +22°C° 0 mm 5 mps 752 mmHg 68%
    01:00 +21°C° 0 mm 5 mps 752 mmHg 70%
    02:00 +20°C° 0 mm 4 mps 751 mmHg 73%
    03:00 +20°C° 0 mm 4 mps 751 mmHg 75%
    04:00 +20°C° 0 mm 3 mps 751 mmHg 77%
    05:00 +19°C° 0 mm 3 mps 751 mmHg 79%
    06:00 +20°C° 0 mm 3 mps 751 mmHg 74%
    07:00 +22°C° 0 mm 3 mps 751 mmHg 69%
    08:00 +24°C° 0 mm 3 mps 751 mmHg 64%
    09:00 +26°C° 0 mm 4 mps 751 mmHg 58%
    10:00 +28°C° 0 mm 4 mps 751 mmHg 51%
    11:00 +30°C° 0 mm 4 mps 751 mmHg 45%
    12:00 +30°C° 0 mm 5 mps 750 mmHg 45%
    13:00 +30°C° 0 mm 5 mps 750 mmHg 45%
    14:00 +30°C° 0 mm 6 mps 749 mmHg 45%
    15:00 +30°C° 0 mm 6 mps 750 mmHg 47%
    16:00 +29°C° 0 mm 6 mps 750 mmHg 49%
    17:00 +28°C° 0 mm 6 mps 750 mmHg 52%
    18:00 +27°C° 0 mm 6 mps 750 mmHg 56%
    19:00 +24°C° 0 mm 6 mps 751 mmHg 60%
    20:00 +23°C° 0 mm 6 mps 751 mmHg 64%
    21:00 +22°C° 0 mm 5 mps 752 mmHg 66%
    22:00 +22°C° 0 mm 5 mps 752 mmHg 68%
    23:00 +22°C° 0 mm 5 mps 753 mmHg 71%

    28 November, Tuesday

    Time Temperature Precipitation Wind Pressure Humidity
    00:00 +21°C° 0 mm 5 mps 753 mmHg 73%
    01:00 +20°C° 0 mm 4 mps 752 mmHg 76%
    02:00 +19°C° 0 mm 4 mps 752 mmHg 79%
    03:00 +19°C° 0 mm 4 mps 752 mmHg 82%
    04:00 +18°C° 0 mm 4 mps 753 mmHg 84%
    05:00 +18°C° 0 mm 4 mps 753 mmHg 87%
    06:00 +19°C° 0 mm 4 mps 753 mmHg 80%
    07:00 +20°C° 0 mm 4 mps 754 mmHg 74%
    08:00 +21°C° 0 mm 5 mps 755 mmHg 67%
    09:00 +22°C° 0 mm 5 mps 755 mmHg 60%
    10:00 +23°C° 0 mm 5 mps 755 mmHg 53%
    11:00 +24°C° 0 mm 6 mps 755 mmHg 46%
    12:00 +26°C° 0 mm 6 mps 755 mmHg 45%
    13:00 +26°C° 0 mm 6 mps 754 mmHg 43%
    14:00 +26°C° 0 mm 7 mps 754 mmHg 42%
    15:00 +24°C° 0 mm 7 mps 754 mmHg 44%
    16:00 +23°C° 0 mm 7 mps 755 mmHg 47%
    17:00 +22°C° 0 mm 7 mps 755 mmHg 49%
    18:00 +21°C° 0 mm 6 mps 755 mmHg 55%
    19:00 +19°C° 0 mm 6 mps 756 mmHg 60%
    20:00 +17°C° 0 mm 5 mps 757 mmHg 66%
    21:00 +17°C° 0 mm 5 mps 757 mmHg 67%
    22:00 +16°C° 0 mm 5 mps 757 mmHg 68%
    23:00 +16°C° 0 mm 5 mps 758 mmHg 69%

    29 November, Wednesday

    Time Temperature Precipitation Wind Pressure Humidity
    00:00 +17°C° 0 mm 4 mps 758 mmHg 69%
    01:00 +15°C° 0 mm 4 mps 757 mmHg 70%
    02:00 +15°C° 0 mm 4 mps 757 mmHg 70%
    03:00 +14°C° 0 mm 4 mps 757 mmHg 72%
    04:00 +14°C° 0 mm 4 mps 758 mmHg 75%
    05:00 +13°C° 0 mm 4 mps 758 mmHg 77%
    06:00 +15°C° 0 mm 4 mps 758 mmHg 70%
    07:00 +18°C° 0 mm 4 mps 759 mmHg 63%
    08:00 +20°C° 0 mm 4 mps 759 mmHg 56%
    09:00 +22°C° 0 mm 4 mps 759 mmHg 49%
    10:00 +23°C° 0 mm 4 mps 759 mmHg 43%
    11:00 +26°C° 0 mm 4 mps 759 mmHg 36%
    12:00 +27°C° 0 mm 4 mps 758 mmHg 34%
    13:00 +28°C° 0 mm 5 mps 757 mmHg 32%
    14:00 +29°C° 0 mm 6 mps 757 mmHg 30%
    15:00 +28°C° 0 mm 6 mps 757 mmHg 32%
    16:00 +27°C° 0 mm 6 mps 756 mmHg 34%
    17:00 +26°C° 0 mm 7 mps 756 mmHg 35%
    18:00 +24°C° 0 mm 7 mps 757 mmHg 38%
    19:00 +23°C° 0 mm 7 mps 757 mmHg 40%
    20:00 +22°C° 0 mm 6 mps 757 mmHg 42%
    21:00 +21°C° 0 mm 7 mps 758 mmHg 45%
    22:00 +20°C° 0 mm 7 mps 758 mmHg 47%
    23:00 +20°C° 0 mm 7 mps 759 mmHg 49%

    30 November, Thursday

    Time Temperature Precipitation Wind Pressure Humidity
    00:00 +18°C° 0 mm 7 mps 759 mmHg 51%
    01:00 +17°C° 0 mm 7 mps 759 mmHg 53%
    02:00 +16°C° 0 mm 7 mps 759 mmHg 55%
    03:00 +16°C° 0 mm 7 mps 759 mmHg 56%
    04:00 +16°C° 0 mm 7 mps 760 mmHg 58%
    05:00 +15°C° 0 mm 7 mps 760 mmHg 60%
    06:00 +16°C° 0 mm 7 mps 760 mmHg 57%
    07:00 +17°C° 0 mm 7 mps 761 mmHg 55%
    08:00 +18°C° 0 mm 7 mps 761 mmHg 53%
    09:00 +21°C° 0 mm 6 mps 761 mmHg 47%
    10:00 +23°C° 0 mm 6 mps 761 mmHg 42%
    11:00 +26°C° 0 mm 6 mps 760 mmHg 36%
    12:00 +27°C° 0 mm 6 mps 760 mmHg 33%
    13:00 +28°C° 0 mm 6 mps 759 mmHg 30%
    14:00 +29°C° 0 mm 6 mps 759 mmHg 27%
    15:00 +29°C° 0 mm 6 mps 759 mmHg 27%
    16:00 +28°C° 0 mm 6 mps 759 mmHg 28%
    17:00 +28°C° 0 mm 7 mps 759 mmHg 28%
    18:00 +26°C° 0 mm 7 mps 760 mmHg 31%
    19:00 +24°C° 0 mm 6 mps 760 mmHg 35%
    20:00 +22°C° 0 mm 6 mps 761 mmHg 38%
    21:00 +21°C° 0 mm 7 mps 761 mmHg 42%
    22:00 +20°C° 0 mm 7 mps 762 mmHg 46%
    23:00 +18°C° 0 mm 7 mps 762 mmHg 49%
    Show more